Torna al catalogo

STARLINK-34434

AttivoComunicazioniVLEO
NORAD 64422·PAYLOAD·🇺🇸 United States

Lanciato Jun 17, 2025 da Vandenberg Space Force Base

Loading…

Prossimi Passaggi (prossime 24 ore)

TLE

AggiornatoSource: CelesTrak SupGP

Epoca: Sep 15, 2026, 03:53 UTC

1 64422C 25129L   26258.16229167  .00020156  00000+0  70112-3 0  2589
2 64422  69.9993 315.2391 0003405 266.6005 173.8005 15.29570807    15

Traccia STARLINK-34434 in tempo reale con AllMySat

Download on the App Store